CKS9111 KCAE-KACY

Flight info

Callsign CKS9111
Flight time 1h 18m
Altitude 39000
Route SCAMS ADEPT POLYY TYI Q64 SAWED Q97 KALDA ZJAAY RADDS SIE
Aircraft A333/H-SDE3GHIJ2J3J5M1RVWXY/LB2D1

Departure

Time 2026-04-18 03:38
Airport Columbia Metropolitan Airport (KCAE)

Arrival

Time 2026-04-18 04:56
Airport Atlantic City International Airport (KACY)
Time Latitude Longitude Altitude Speed Heading
2026-04-18 03:17 33.93523 -81.10962 238 ft 0 kts 114°
2026-04-18 03:31 33.93529 -81.10980 238 ft 3 kts 114°
2026-04-18 03:31 33.93538 -81.11004 238 ft 3 kts 103°
2026-04-18 03:31 33.93539 -81.11030 238 ft 3 kts 81°
2026-04-18 03:31 33.93533 -81.11055 238 ft 3 kts 60°
2026-04-18 03:32 33.93520 -81.11075 238 ft 3 kts 38°
2026-04-18 03:32 33.93518 -81.11077 238 ft 0 kts 36°
2026-04-18 03:34 33.93531 -81.11066 238 ft 5 kts 36°
2026-04-18 03:34 33.93569 -81.11068 238 ft 8 kts 343°
2026-04-18 03:34 33.93633 -81.11096 238 ft 10 kts 341°
2026-04-18 03:34 33.93699 -81.11129 238 ft 10 kts 342°
2026-04-18 03:35 33.93729 -81.11119 239 ft 0 kts 30°
2026-04-18 03:35 33.93731 -81.11118 239 ft 1 kts 30°
2026-04-18 03:36 33.93766 -81.11088 239 ft 9 kts 36°
2026-04-18 03:36 33.93821 -81.11092 240 ft 8 kts 311°
2026-04-18 03:36 33.93840 -81.11145 241 ft 0 kts 286°
2026-04-18 03:37 33.93886 -81.11352 239 ft 56 kts 284°
2026-04-18 03:37 33.94035 -81.12035 235 ft 111 kts 284°
2026-04-18 03:37 33.94274 -81.13127 226 ft 157 kts 284°
2026-04-18 03:37 33.94566 -81.14454 693 ft 163 kts 284°
2026-04-18 03:38 33.94878 -81.15867 1009 ft 186 kts 284°
2026-04-18 03:38 33.95223 -81.17417 1473 ft 199 kts 285°
2026-04-18 03:38 33.95599 -81.19110 1749 ft 218 kts 285°
2026-04-18 03:38 33.96194 -81.20870 1928 ft 236 kts 302°
2026-04-18 03:39 33.97399 -81.22261 2074 ft 255 kts 334°
2026-04-18 03:39 33.99163 -81.22582 2514 ft 264 kts 10°
2026-04-18 03:39 34.00866 -81.21763 3112 ft 266 kts 31°
2026-04-18 03:39 34.02336 -81.20380 3717 ft 270 kts 42°
2026-04-18 03:40 34.03664 -81.18759 4340 ft 273 kts 46°
2026-04-18 03:40 34.04957 -81.17058 4992 ft 276 kts 46°
2026-04-18 03:40 34.06272 -81.15357 5627 ft 278 kts 45°
2026-04-18 03:40 34.07630 -81.13681 6288 ft 280 kts 44°
2026-04-18 03:41 34.09030 -81.12037 6988 ft 281 kts 43°
2026-04-18 03:41 34.10459 -81.10416 7748 ft 282 kts 42°
2026-04-18 03:41 34.11901 -81.08814 8494 ft 282 kts 41°
2026-04-18 03:41 34.13357 -81.07211 9243 ft 283 kts 41°
2026-04-18 03:42 34.14820 -81.05605 9975 ft 285 kts 41°
2026-04-18 03:42 34.16290 -81.03988 10414 ft 297 kts 41°
2026-04-18 03:42 34.17862 -81.02257 10657 ft 314 kts 41°
2026-04-18 03:42 34.19521 -81.00427 10901 ft 332 kts 41°
2026-04-18 03:43 34.21259 -80.98504 11221 ft 344 kts 41°
2026-04-18 03:43 34.23041 -80.96527 11684 ft 351 kts 41°
2026-04-18 03:43 34.24848 -80.94520 12240 ft 355 kts 41°
2026-04-18 03:43 34.26677 -80.92485 12765 ft 359 kts 41°
2026-04-18 03:44 34.28528 -80.90426 13316 ft 363 kts 41°
2026-04-18 03:44 34.30394 -80.88349 13842 ft 366 kts 41°
2026-04-18 03:44 34.32279 -80.86251 14311 ft 370 kts 40°
2026-04-18 03:44 34.34177 -80.84137 14761 ft 373 kts 40°
2026-04-18 03:45 34.36095 -80.81999 15247 ft 375 kts 40°
2026-04-18 03:45 34.38024 -80.79847 15714 ft 378 kts 40°
2026-04-18 03:45 34.39965 -80.77682 16185 ft 381 kts 40°
2026-04-18 03:45 34.41920 -80.75499 16638 ft 383 kts 40°
2026-04-18 03:46 34.43889 -80.73299 17089 ft 386 kts 40°
2026-04-18 03:46 34.45846 -80.71111 17539 ft 388 kts 40°
2026-04-18 03:46 34.47840 -80.68879 18002 ft 391 kts 40°
2026-04-18 03:46 34.49842 -80.66638 18438 ft 393 kts 40°
2026-04-18 03:47 34.51860 -80.64377 18810 ft 396 kts 40°
2026-04-18 03:47 34.53887 -80.62104 19160 ft 398 kts 39°
2026-04-18 03:47 34.55924 -80.59820 19539 ft 400 kts 39°
2026-04-18 03:47 34.57974 -80.57518 19927 ft 402 kts 39°
2026-04-18 03:48 34.59992 -80.55144 20321 ft 407 kts 44°
2026-04-18 03:48 34.61713 -80.52384 20721 ft 414 kts 55°
2026-04-18 03:48 34.62962 -80.49216 21116 ft 419 kts 65°
2026-04-18 03:48 34.63944 -80.45861 21482 ft 424 kts 69°
2026-04-18 03:49 34.64789 -80.42408 21838 ft 428 kts 71°
2026-04-18 03:49 34.65566 -80.38898 22165 ft 431 kts 71°
2026-04-18 03:49 34.66324 -80.35354 22523 ft 434 kts 71°
2026-04-18 03:49 34.67089 -80.31788 22870 ft 437 kts 71°
2026-04-18 03:50 34.67860 -80.28250 23230 ft 440 kts 71°
2026-04-18 03:50 34.68658 -80.24645 23580 ft 443 kts 70°
2026-04-18 03:50 34.69470 -80.21024 23879 ft 445 kts 70°
2026-04-18 03:50 34.70455 -80.17470 24163 ft 443 kts 62°
2026-04-18 03:51 34.71887 -80.14185 24505 ft 437 kts 52°
2026-04-18 03:51 34.73619 -80.11145 24836 ft 436 kts 49°
2026-04-18 03:51 34.75455 -80.08203 25126 ft 437 kts 46°
2026-04-18 03:51 34.77352 -80.05310 25413 ft 439 kts 45°
2026-04-18 03:52 34.79285 -80.02423 25699 ft 441 kts 45°
2026-04-18 03:52 34.81147 -79.99431 25972 ft 446 kts 49°
2026-04-18 03:52 34.82903 -79.96307 26259 ft 449 kts 51°
2026-04-18 03:52 34.84629 -79.93122 26537 ft 452 kts 51°
2026-04-18 03:53 34.86334 -79.89898 26811 ft 454 kts 52°
2026-04-18 03:53 34.88035 -79.86641 27082 ft 456 kts 52°
2026-04-18 03:53 34.89737 -79.83364 27358 ft 458 kts 52°
2026-04-18 03:53 34.91443 -79.80078 27628 ft 460 kts 52°
2026-04-18 03:54 34.93156 -79.76780 27986 ft 460 kts 52°
2026-04-18 03:54 34.94870 -79.73482 28304 ft 461 kts 52°
2026-04-18 03:54 34.96592 -79.70170 28522 ft 464 kts 52°
2026-04-18 03:54 34.98323 -79.66842 28741 ft 466 kts 52°
2026-04-18 03:55 35.00041 -79.63540 28986 ft 468 kts 52°
2026-04-18 03:55 35.01787 -79.60180 29228 ft 470 kts 52°
2026-04-18 03:55 35.03538 -79.56807 29470 ft 472 kts 52°
2026-04-18 03:55 35.05296 -79.53416 29731 ft 474 kts 52°
2026-04-18 03:56 35.07063 -79.50006 29980 ft 476 kts 52°
2026-04-18 03:56 35.08831 -79.46589 30189 ft 478 kts 52°
2026-04-18 03:56 35.10609 -79.43149 30391 ft 479 kts 52°
2026-04-18 03:56 35.12392 -79.39695 30618 ft 481 kts 52°
2026-04-18 03:57 35.15975 -79.32745 31065 ft 484 kts 52°
2026-04-18 03:57 35.17769 -79.29260 31269 ft 485 kts 52°
2026-04-18 03:57 35.19551 -79.25796 31469 ft 487 kts 52°
2026-04-18 03:58 35.21355 -79.22286 31668 ft 488 kts 52°
2026-04-18 03:58 35.23163 -79.18763 31921 ft 488 kts 51°
2026-04-18 03:58 35.24961 -79.15252 32219 ft 486 kts 51°
2026-04-18 03:58 35.26758 -79.11741 32504 ft 486 kts 51°
2026-04-18 03:59 35.28553 -79.08234 32730 ft 486 kts 51°
2026-04-18 03:59 35.30348 -79.04723 33014 ft 486 kts 51°
2026-04-18 03:59 35.32136 -79.01219 33422 ft 482 kts 51°
2026-04-18 03:59 35.33910 -78.97737 33742 ft 481 kts 51°
2026-04-18 04:00 35.35659 -78.94306 33986 ft 481 kts 51°
2026-04-18 04:00 35.37433 -78.90823 34190 ft 481 kts 51°
2026-04-18 04:00 35.39200 -78.87352 34415 ft 480 kts 51°
2026-04-18 04:00 35.40968 -78.83874 34631 ft 480 kts 51°
2026-04-18 04:01 35.42733 -78.80400 34838 ft 480 kts 51°
2026-04-18 04:01 35.44498 -78.76920 35068 ft 479 kts 51°
2026-04-18 04:01 35.46257 -78.73449 35288 ft 479 kts 51°
2026-04-18 04:01 35.48018 -78.69970 35503 ft 479 kts 51°
2026-04-18 04:02 35.49770 -78.66505 35735 ft 477 kts 51°
2026-04-18 04:02 35.51514 -78.63049 36015 ft 475 kts 51°
2026-04-18 04:02 35.53229 -78.59648 36212 ft 475 kts 51°
2026-04-18 04:02 35.54969 -78.56197 36388 ft 475 kts 51°
2026-04-18 04:03 35.56709 -78.52745 36570 ft 475 kts 51°
2026-04-18 04:03 35.58446 -78.49295 36749 ft 475 kts 51°
2026-04-18 04:03 35.60180 -78.45845 36935 ft 474 kts 51°
2026-04-18 04:03 35.61914 -78.42392 37122 ft 474 kts 51°
2026-04-18 04:04 35.63644 -78.38943 37310 ft 474 kts 51°
2026-04-18 04:04 35.65371 -78.35495 37491 ft 473 kts 51°
2026-04-18 04:04 35.67097 -78.32049 37671 ft 473 kts 51°
2026-04-18 04:04 35.68822 -78.28599 37846 ft 473 kts 51°
2026-04-18 04:05 35.69963 -78.26316 37957 ft 473 kts 51°
2026-04-18 04:05 35.71688 -78.22863 38110 ft 473 kts 51°
2026-04-18 04:05 35.73409 -78.19411 38285 ft 472 kts 51°
2026-04-18 04:05 35.75126 -78.15965 38449 ft 472 kts 51°
2026-04-18 04:06 35.76845 -78.12511 38604 ft 472 kts 51°
2026-04-18 04:06 35.78559 -78.09066 38758 ft 472 kts 51°
2026-04-18 04:06 35.80271 -78.05620 38852 ft 472 kts 51°
2026-04-18 04:06 35.81980 -78.02176 38965 ft 472 kts 51°
2026-04-18 04:07 35.83696 -77.98718 39022 ft 473 kts 51°
2026-04-18 04:07 35.87123 -77.91801 39023 ft 476 kts 51°
2026-04-18 04:08 35.90558 -77.84841 39025 ft 474 kts 51°
2026-04-18 04:08 35.93979 -77.77900 39025 ft 473 kts 51°
2026-04-18 04:09 35.97490 -77.71044 39025 ft 467 kts 45°
2026-04-18 04:09 36.01673 -77.64995 39026 ft 462 kts 40°
2026-04-18 04:10 36.06015 -77.59136 39046 ft 461 kts 40°
2026-04-18 04:10 36.10377 -77.53325 39042 ft 460 kts 40°
2026-04-18 04:11 36.14685 -77.47556 39024 ft 458 kts 40°
2026-04-18 04:11 36.18990 -77.41763 39023 ft 457 kts 40°
2026-04-18 04:12 36.23292 -77.35958 39038 ft 457 kts 40°
2026-04-18 04:12 36.27591 -77.30144 39044 ft 457 kts 40°
2026-04-18 04:13 36.31975 -77.24447 39056 ft 453 kts 36°
2026-04-18 04:13 36.36599 -77.19151 39045 ft 452 kts 36°
2026-04-18 04:14 36.41275 -77.13919 39043 ft 453 kts 35°
2026-04-18 04:14 36.45933 -77.08720 39037 ft 453 kts 35°
2026-04-18 04:15 36.50615 -77.03473 39031 ft 453 kts 35°
2026-04-18 04:15 36.55294 -76.98214 39035 ft 453 kts 36°
2026-04-18 04:16 36.59967 -76.92950 39037 ft 453 kts 36°
2026-04-18 04:16 36.64645 -76.87671 39036 ft 454 kts 36°
2026-04-18 04:17 36.69328 -76.82378 39041 ft 454 kts 36°
2026-04-18 04:17 36.73977 -76.77114 39052 ft 454 kts 36°
2026-04-18 04:18 36.78652 -76.71811 39045 ft 454 kts 36°
2026-04-18 04:18 36.83322 -76.66506 39046 ft 454 kts 36°
2026-04-18 04:19 36.87997 -76.61186 39034 ft 454 kts 36°
2026-04-18 04:19 36.92660 -76.55870 39047 ft 454 kts 36°
2026-04-18 04:20 36.97326 -76.50541 39047 ft 454 kts 36°
2026-04-18 04:20 37.01985 -76.45212 39025 ft 454 kts 36°
2026-04-18 04:21 37.06610 -76.39911 39030 ft 453 kts 36°
2026-04-18 04:21 37.11264 -76.34569 39026 ft 453 kts 36°
2026-04-18 04:22 37.15910 -76.29225 39044 ft 454 kts 37°
2026-04-18 04:22 37.20558 -76.23872 39029 ft 453 kts 37°
2026-04-18 04:23 37.25199 -76.18516 39034 ft 453 kts 37°
2026-04-18 04:23 37.29844 -76.13147 39047 ft 453 kts 37°
2026-04-18 04:24 37.34469 -76.07788 39046 ft 451 kts 37°
2026-04-18 04:24 37.39073 -76.02447 39044 ft 450 kts 37°
2026-04-18 04:25 37.43688 -75.97087 39042 ft 451 kts 37°
2026-04-18 04:25 37.48301 -75.91718 38879 ft 452 kts 37°
2026-04-18 04:25 37.50599 -75.89038 38654 ft 447 kts 37°
2026-04-18 04:26 37.52936 -75.86498 38273 ft 439 kts 31°
2026-04-18 04:26 37.55418 -75.84354 37727 ft 437 kts 27°
2026-04-18 04:26 37.57988 -75.82316 37183 ft 436 kts 26°
2026-04-18 04:26 37.60584 -75.80336 36661 ft 436 kts 25°
2026-04-18 04:27 37.63195 -75.78385 36129 ft 437 kts 25°
2026-04-18 04:27 37.65820 -75.76437 35517 ft 439 kts 25°
2026-04-18 04:27 37.68466 -75.74474 34907 ft 441 kts 25°
2026-04-18 04:27 37.71122 -75.72496 34279 ft 444 kts 25°
2026-04-18 04:28 37.73785 -75.70504 33581 ft 446 kts 25°
2026-04-18 04:28 37.76456 -75.68499 32906 ft 447 kts 25°
2026-04-18 04:28 37.79097 -75.66512 32257 ft 448 kts 25°
2026-04-18 04:28 37.81782 -75.64488 31550 ft 449 kts 25°
2026-04-18 04:29 37.84463 -75.62437 30956 ft 449 kts 27°
2026-04-18 04:29 37.87075 -75.60285 30528 ft 445 kts 29°
2026-04-18 04:29 37.89624 -75.58081 30040 ft 442 kts 30°
2026-04-18 04:29 37.92137 -75.55861 29492 ft 438 kts 30°
2026-04-18 04:30 37.94591 -75.53683 29041 ft 434 kts 30°
2026-04-18 04:30 37.97052 -75.51502 28578 ft 429 kts 30°
2026-04-18 04:30 37.99488 -75.49354 28108 ft 424 kts 30°
2026-04-18 04:30 38.01904 -75.47233 27639 ft 420 kts 30°
2026-04-18 04:31 38.04316 -75.45154 27175 ft 415 kts 27°
2026-04-18 04:31 38.06836 -75.43445 26715 ft 409 kts 23°
2026-04-18 04:31 38.09382 -75.41843 26262 ft 405 kts 22°
2026-04-18 04:31 38.11920 -75.40312 25799 ft 402 kts 21°
2026-04-18 04:32 38.14450 -75.38819 25343 ft 399 kts 21°
2026-04-18 04:32 38.16967 -75.37346 24890 ft 397 kts 21°
2026-04-18 04:32 38.19469 -75.35883 24446 ft 395 kts 21°
2026-04-18 04:32 38.21958 -75.34422 23991 ft 393 kts 22°
2026-04-18 04:33 38.24435 -75.32963 23528 ft 392 kts 22°
2026-04-18 04:33 38.26899 -75.31506 23016 ft 389 kts 22°
2026-04-18 04:33 38.29309 -75.30076 22580 ft 386 kts 22°
2026-04-18 04:33 38.31729 -75.28637 22142 ft 382 kts 22°
2026-04-18 04:34 38.34130 -75.27209 21705 ft 379 kts 22°
2026-04-18 04:34 38.36508 -75.25794 21282 ft 376 kts 22°
2026-04-18 04:34 38.38870 -75.24387 20843 ft 373 kts 22°
2026-04-18 04:34 38.41212 -75.22992 20429 ft 370 kts 22°
2026-04-18 04:35 38.43537 -75.21606 20004 ft 368 kts 22°
2026-04-18 04:35 38.45848 -75.20227 19578 ft 365 kts 22°
2026-04-18 04:35 38.48145 -75.18856 19163 ft 363 kts 22°
2026-04-18 04:35 38.50428 -75.17492 18736 ft 361 kts 22°
2026-04-18 04:36 38.52700 -75.16135 18326 ft 360 kts 22°
2026-04-18 04:36 38.54962 -75.14782 17863 ft 357 kts 22°
2026-04-18 04:36 38.57207 -75.13438 17438 ft 354 kts 22°
2026-04-18 04:36 38.59431 -75.12105 16997 ft 352 kts 23°
2026-04-18 04:37 38.61639 -75.10781 16593 ft 349 kts 23°
2026-04-18 04:37 38.63829 -75.09467 16187 ft 346 kts 23°
2026-04-18 04:37 38.65969 -75.08156 15785 ft 344 kts 24°
2026-04-18 04:37 38.68113 -75.06802 15380 ft 342 kts 24°
2026-04-18 04:38 38.70236 -75.05439 14978 ft 340 kts 24°
2026-04-18 04:38 38.72345 -75.04077 14577 ft 339 kts 25°
2026-04-18 04:38 38.74445 -75.02719 14179 ft 337 kts 25°
2026-04-18 04:38 38.76532 -75.01371 13773 ft 335 kts 25°
2026-04-18 04:39 38.78614 -75.00028 13332 ft 333 kts 25°
2026-04-18 04:39 38.80679 -74.98698 12943 ft 330 kts 25°
2026-04-18 04:39 38.82724 -74.97381 12554 ft 327 kts 25°
2026-04-18 04:39 38.84755 -74.96073 12161 ft 325 kts 25°
2026-04-18 04:40 38.86769 -74.94776 11776 ft 323 kts 25°
2026-04-18 04:40 38.88775 -74.93483 11388 ft 321 kts 25°
2026-04-18 04:40 38.90732 -74.92221 11157 ft 314 kts 25°
2026-04-18 04:40 38.92641 -74.90987 11070 ft 301 kts 25°
2026-04-18 04:41 38.94478 -74.89798 10949 ft 290 kts 25°
2026-04-18 04:41 38.96258 -74.88646 10809 ft 282 kts 25°
2026-04-18 04:41 38.97984 -74.87529 10698 ft 274 kts 25°
2026-04-18 04:41 38.99668 -74.86440 10564 ft 267 kts 25°
2026-04-18 04:42 39.01324 -74.85369 10288 ft 266 kts 25°
2026-04-18 04:42 39.02978 -74.84299 9986 ft 266 kts 25°
2026-04-18 04:42 39.04629 -74.83231 9688 ft 265 kts 25°
2026-04-18 04:42 39.06273 -74.82166 9399 ft 264 kts 25°
2026-04-18 04:43 39.07910 -74.81107 9113 ft 262 kts 24°
2026-04-18 04:43 39.09623 -74.80361 8825 ft 259 kts
2026-04-18 04:43 39.11410 -74.80112 8540 ft 257 kts
2026-04-18 04:43 39.13196 -74.80021 8245 ft 256 kts
2026-04-18 04:44 39.14977 -74.79972 7947 ft 255 kts
2026-04-18 04:44 39.16749 -74.79937 7663 ft 254 kts
2026-04-18 04:44 39.18514 -74.79907 7376 ft 253 kts
2026-04-18 04:44 39.20270 -74.79879 7069 ft 252 kts
2026-04-18 04:45 39.21996 -74.79852 6780 ft 251 kts
2026-04-18 04:45 39.23747 -74.79826 6410 ft 253 kts
2026-04-18 04:45 39.25523 -74.80070 5864 ft 261 kts 347°
2026-04-18 04:45 39.27285 -74.80748 5416 ft 265 kts 342°
2026-04-18 04:46 39.29036 -74.81508 5036 ft 265 kts 342°
2026-04-18 04:46 39.30781 -74.82285 4681 ft 264 kts 342°
2026-04-18 04:46 39.32516 -74.83066 4300 ft 264 kts 342°
2026-04-18 04:46 39.34229 -74.83842 3931 ft 264 kts 342°
2026-04-18 04:47 39.35964 -74.84637 3583 ft 264 kts 342°
2026-04-18 04:47 39.37692 -74.85433 3252 ft 263 kts 342°
2026-04-18 04:47 39.39408 -74.86233 3036 ft 261 kts 342°
2026-04-18 04:47 39.41114 -74.87035 3013 ft 261 kts 342°
2026-04-18 04:48 39.42827 -74.87841 3010 ft 262 kts 342°
2026-04-18 04:48 39.44535 -74.88643 3009 ft 258 kts 342°
2026-04-18 04:48 39.46201 -74.89283 3013 ft 241 kts 354°
2026-04-18 04:48 39.47815 -74.89395 3035 ft 223 kts
2026-04-18 04:49 39.49266 -74.89025 3024 ft 205 kts 23°
2026-04-18 04:49 39.50417 -74.88102 3016 ft 187 kts 45°
2026-04-18 04:49 39.51205 -74.86822 3018 ft 179 kts 57°
2026-04-18 04:49 39.51872 -74.85465 3015 ft 178 kts 59°
2026-04-18 04:50 39.52510 -74.84113 3014 ft 178 kts 59°
2026-04-18 04:50 39.53156 -74.82740 3014 ft 178 kts 59°
2026-04-18 04:50 39.53801 -74.81368 3014 ft 178 kts 60°
2026-04-18 04:50 39.54235 -74.79870 3009 ft 178 kts 81°
2026-04-18 04:51 39.54155 -74.78277 3018 ft 179 kts 102°
2026-04-18 04:51 39.53705 -74.76773 3019 ft 180 kts 114°
2026-04-18 04:51 39.53107 -74.75343 2871 ft 180 kts 117°
2026-04-18 04:51 39.52508 -74.73919 2624 ft 180 kts 115°
2026-04-18 04:52 39.51924 -74.72483 2385 ft 178 kts 115°
2026-04-18 04:52 39.51357 -74.71105 2131 ft 167 kts 115°
2026-04-18 04:52 39.50837 -74.69843 1925 ft 152 kts 115°
2026-04-18 04:52 39.50363 -74.68691 1717 ft 139 kts 115°
2026-04-18 04:53 39.49922 -74.67617 1548 ft 133 kts 114°
2026-04-18 04:53 39.49489 -74.66557 1365 ft 133 kts 114°
2026-04-18 04:53 39.49203 -74.65857 1254 ft 133 kts 114°
2026-04-18 04:53 39.48624 -74.64447 1017 ft 134 kts 115°
2026-04-18 04:54 39.48190 -74.63382 829 ft 134 kts 115°
2026-04-18 04:54 39.47756 -74.62310 668 ft 135 kts 116°
2026-04-18 04:54 39.47315 -74.61244 472 ft 133 kts 118°
2026-04-18 04:54 39.46877 -74.60188 314 ft 133 kts 119°
2026-04-18 04:55 39.46437 -74.59128 133 ft 134 kts 117°
2026-04-18 04:55 39.46149 -74.58424 85 ft 123 kts 119°
2026-04-18 04:55 39.45838 -74.57674 86 ft 67 kts 118°
2026-04-18 04:56 39.45544 -74.56961 88 ft 30 kts 118°
2026-04-18 04:56 39.45456 -74.56751 86 ft 19 kts 118°
2026-04-18 04:56 39.45397 -74.56687 85 ft 9 kts 183°
2026-04-18 04:56 39.45330 -74.56727 86 ft 12 kts 208°
2026-04-18 04:57 39.45286 -74.56757 86 ft 0 kts 207°
2026-04-18 04:57 39.45281 -74.56760 86 ft 3 kts 207°
2026-04-18 04:57 39.45207 -74.56801 87 ft 13 kts 182°
2026-04-18 04:57 39.45148 -74.56724 87 ft 13 kts 118°
2026-04-18 04:58 39.45093 -74.56638 85 ft 13 kts 162°
2026-04-18 04:58 39.45027 -74.56659 86 ft 0 kts 208°
2026-04-18 04:59 39.45028 -74.56659 86 ft 0 kts 208°
2026-04-18 05:08 39.45028 -74.56658 82 ft 0 kts 208°
2026-04-18 05:17 39.45029 -74.56658 82 ft 0 kts 208°